AMC-21

Last updated on Tue Oct 15 2024 00:02:38 GMT+0000 (Coordinated Universal Time)

1 33275U 08038B 24288.52587500 .00000036 00000+0 00000+0 0 9992 2 33275 1.3616 88.1380 0003022 120.4763 239.3837 1.00272883 59366
UTC large
Height (km)
Speed (km/s)
/
Latitude / Longitude
Inclination (degrees)
Orbital Period (minutes)
Azimuth
Elevation
Range (km)
Doppler Factor

Next 0 passes for location: London (51.5072 / 0.1276)

Sorry there are no passes over London.